Regional Weather Roundup
Issued by NWS Little Rock, AR

Home | Current Version | Previous Version | Graphics & Text | Print | Product List | Glossary On
Versions: 1 2 3 4 5 6 7 8 9 10 11 12 13 14 15 16 17 18 19 20 21 22 23 24 25 26 27 28 29 30 31 32 33 34 35 36 37 38 39 40 41 42 43 44 45 46 47 48 49 50
000
ASUS44 KLZK 291405
RWRLZK

WEATHER ROUNDUP FOR ARKANSAS
NATIONAL WEATHER SERVICE LITTLE ROCK AR
900 AM CDT FRI MAY 29 2015

NOTE: "FAIR" INDICATES FEW OR NO CLOUDS BELOW 12,000 FEET WITH NO
SIGNIFICANT WEATHER AND/OR OBSTRUCTIONS TO VISIBILITY.

ARZ001-003-010-029-291500-
NORTHWEST ARKANSAS

CITY           SKY/WX    TMP DP  RH WIND       PRES   REMARKS
FAYETTEVILLE   LGT RAIN  68  67  96 CALM      30.04S
FORT SMITH     CLOUDY    70  67  90 E7        29.99F THUNDER
HARRISON       PTSUNNY   74  67  78 SW5       30.07R
BENTONVILLE    CLOUDY    70  64  83 CALM      30.05S
ROGERS         LGT RAIN  68  67  96 E3        30.06S
SILOAM SPGS    CLOUDY    68  63  83 E3        30.05S
HIGHFILL       LGT RAIN  69  67  93 CALM      30.04S
SPRINGDALE     PTSUNNY   68  68 100 CALM      30.07R
$$

ARZ004-005-016-291500-
NORTH CENTRAL ARKANSAS

CITY           SKY/WX    TMP DP  RH WIND       PRES   REMARKS
BATESVILLE     SUNNY     75  70  83 SE8       30.06R
FLIPPIN        SUNNY     73  66  78 CALM      30.03S
MTN HOME       SUNNY     73  66  78 VRB5      30.05R
$$

ARZ040-041-291500-
WEST CENTRAL ARKANSAS

CITY           SKY/WX    TMP DP  RH WIND       PRES   REMARKS
MENA           CLOUDY    73  68  83 CALM      30.01S
MOUNT IDA      CLOUDY    74  69  85 E3        30.01R
$$

ARZ009-017-025-026-028-291500-
NORTHEAST ARKANSAS

CITY           SKY/WX    TMP DP  RH WIND       PRES   REMARKS
CORNING        FAIR      77  72  83 S7        30.08R
JONESBORO      SUNNY     74  70  87 S5        30.07R
NEWPORT        SUNNY     78  73  84 S9        30.08R
WALNUT RIDGE   SUNNY     75  68  78 S8        30.07R
BLYTHEVILLE    CLOUDY    73  71  93 S10       30.10R
NW BLYTHEVILLE CLOUDY    73  68  83 SE8       30.09
$$

ARZ022-023-033-042-044-291500-
CENTRAL ARKANSAS

CITY           SKY/WX    TMP DP  RH WIND       PRES   REMARKS
LITTLE ROCK    PTSUNNY   75  68  78 S5        30.05R
N LITTLE ROCK  PTSUNNY   74  71  88 S7        30.05R
JACKSONVILLE   PTSUNNY   75  70  85 S7        30.05R
SEARCY         PTSUNNY   74  70  87 S5        30.07R
HOT SPRINGS    CLOUDY    72  68  87 E7        30.04S
RUSSELLVILLE   CLOUDY    72  68  87 CALM      30.04R
CLINTON        FAIR      72  68  88 CALM      30.07S
$$

ARZ036-291500-
EAST ARKANSAS

CITY           SKY/WX    TMP DP  RH WIND       PRES   REMARKS
WEST MEMPHIS   MOSUNNY   77  73  87 S10       30.08R
$$

ARZ050-053-066-070-073-291500-
SOUTHWEST ARKANSAS

CITY           SKY/WX    TMP DP  RH WIND       PRES   REMARKS
ARKADELPHIA    FAIR      73  73 100 CALM      30.04R
CAMDEN         PTSUNNY   73  68  83 CALM      30.03S
TEXARKANA      CLOUDY    71  69  93 E6        29.99S
EL DORADO      CLOUDY    74  71  91 S3        30.04S
DE QUEEN       CLOUDY    71  69  93 E22G38    29.97R
$$

ARZ056-057-069-291500-
SOUTHEAST ARKANSAS

CITY           SKY/WX    TMP DP  RH WIND       PRES   REMARKS
PINE BLUFF     PTSUNNY   74  69  85 S7        30.06R
STUTTGART      MOSUNNY   75  70  83 SE9       30.06S
MONTICELLO     MOSUNNY   78  73  84 SW7       30.06R

$$




USA.gov is the U.S. government's official web portal to all federal, state and local government web resources and services.